Orbital Elements at Epoch 2459200.5 (2020-Dec-17.0) TDB
Reference: JPL 18 (heliocentric ecliptic J2000)
Element | Value | Uncertainty (1-sigma) | Units |
e | .2620263275949985 | 4.2472e-08 | |
a | 2.608677409768135 | 1.3267e-08 | au |
q | 1.925135248206557 | 1.0828e-07 | au |
i | 2.34995731077125 | 4.4415e-06 | deg |
node | 25.6596352066631 | 0.00011515 | deg |
peri | 7.008670879728196 | 0.00011564 | deg |
M | 211.826501970919 | 1.4322e-05 | deg |
tp | 2459833.927662867794 (2022-Sep-11.42766287) | 6.5179e-05 | TDB |
period | 1538.965885705493 4.21 | 1.174e-05 3.214e-08 | d yr |
n | .2339233139238618 | 1.7845e-09 | deg/d |
Q | 3.292219571329713 | 1.6743e-08 | au |
|
| | Orbit Determination Parameters
Additional Information
|